Satellite-Ground Cal/Val Site Overpasses Predictions

Prediction of Satellite NPP Overpassing Cal/Val Site: Antarctic Dome C

Ground Cal/Val Site Location: Latitude: -75.10, Longitude: 123.35; Satellite-Ground Site NADIR distance within 100 km.

Table of predicted overpasses for the next 14.0 days since TLE Epoch: 6/5/2015
Interval Starting Time Ending Time Minimum Distance Time Minimum Distance (km)
1 06/06/2015 15:05:54 06/06/2015 15:06:18 06/06/2015 15:06:06 54.89
2 06/07/2015 14:47:04 06/07/2015 14:47:29 06/07/2015 14:47:16 54.27
3 06/08/2015 07:48:45 06/08/2015 07:49:04 06/08/2015 07:48:54 74.47
4 06/09/2015 07:29:51 06/09/2015 07:30:19 06/09/2015 07:30:05 33.42
5 06/11/2015 15:12:16 06/11/2015 15:12:26 06/11/2015 15:12:21 92.90
6 06/12/2015 14:53:16 06/12/2015 14:53:45 06/12/2015 14:53:30 18.44
7 06/14/2015 07:36:06 06/14/2015 07:36:35 06/14/2015 07:36:20 3.71
8 06/17/2015 14:59:31 06/17/2015 14:59:59 06/17/2015 14:59:45 18.32
9 06/18/2015 14:40:49 06/18/2015 14:41:02 06/18/2015 14:40:56 88.63
